Cosmos 2026 Rocket - Orbit

View from above orbital plane
View from above orbital plane
View from above satellite
View from above satellite

Ground track
Ground track

The orbit data is extracted from the following two-line orbital elements,

1 20046U 89042B   13140.66321156  .00000139  00000-0  12281-3 0  1222
2 20046 082.9369 332.2841 0040648 281.7691 122.2850 13.77902903204254
Epoch (UTC): 20 May 2013 15:55:01
Eccentricity: 0.0040648
inclination: 82.9369°
perigee height: 941 km
apogee height: 1001 km
right ascension of ascending node: 332.2841°
argument of perigee: 281.7691°
revolutions per day: 13.77902903
mean anomaly at epoch: 122.2850°
orbit number at epoch: 20425

The dashed part of the orbit path shows where the satellite is in the earth's shadow,  

Developed and maintained by Chris Peat, Heavens-Above GmbH. Please read the updated FAQ before sending e-mail. Imprint. DLR